Fallon, NV

4:02 PM PDT on July 24, 2016 (GMT -0700)
Fallon Naval Air Station

Weather History for KNFL - March, 2014

Change the Weather History Date:

Wednesday, March 26, 2014

  Actual Average Record
Temperature  
Mean Temperature 49 °F -  
Max Temperature 55 °F 59 °F 76 °F (1966)
Min Temperature 39 °F 30 °F 14 °F (1942)
Degree Days  
Heating Degree Days 16    
Moisture  
Dew Point 27 °F    
Average Humidity 48    
Maximum Humidity 74    
Minimum Humidity 23    
Precipitation  
Precipitation 0.00 in - - ()
Sea Level Pressure  
Sea Level Pressure 29.66 in    
Wind  
Wind Speed 9 mph (West)    
Max Wind Speed 24 mph    
Max Gust Speed 34 mph    
Visibility 10 miles    
Events Rain    
Averages and records for this station are not official NWS values.
T = Trace of Precipitation, MM = Missing Value Source: NWS Daily Summary

Daily Weather History Graph

Daily Weather History Graph

Search for Another Location

Airport or City:

Trip Planner

Search our weather history database for the weather conditions in past years. The results will help you decide how hot, cold, wet, or windy it might be!

Date:

Astronomy

Mar. 26, 2014 Rise Set
Actual Time 6:48 AM PDT 7:12 PM PDT
Civil Twilight 6:21 AM PDT 7:39 PM PDT
Nautical Twilight 5:50 AM PDT 8:11 PM PDT
Astronomical Twilight 5:17 AM PDT 8:43 PM PDT
Moon 3:59 AM PDT (3/26) 2:58 PM PDT (3/26)
Length of Visible Light 13h 18m
Length of Day
12h 24m
Waning Crescent, 21% of the Moon is Illuminated
Mar 26
Waning Crescent
Mar 30
New
Apr 7
First Quarter
Apr 15
Full
Apr 22
Last Quarter

Hourly Weather History & Observations

Time (PDT) Temp. Windchill Dew Point Humidity Pressure Visibility Wind Dir Wind Speed Gust Speed Precip Events Conditions
12:56 AM 48.0 °F - 25.0 °F 41% 29.65 in 10.0 mi WNW 10.4 mph - N/A   Overcast
1:56 AM 48.0 °F - 30.9 °F 52% 29.65 in 10.0 mi NW 12.7 mph - N/A   Overcast
2:56 AM 45.0 °F 38.5 °F 35.1 °F 68% 29.64 in 10.0 mi WNW 13.8 mph - 0.00 in   Mostly Cloudy
3:56 AM 45.0 °F 40.6 °F 35.1 °F 68% 29.64 in 10.0 mi NW 8.1 mph - 0.00 in Rain Light Rain
4:56 AM 44.1 °F 41.5 °F 35.1 °F 71% 29.63 in 10.0 mi North 4.6 mph - 0.00 in   Overcast
5:56 AM 43.0 °F 40.3 °F 34.0 °F 71% 29.63 in 10.0 mi NNW 4.6 mph - N/A   Overcast
6:09 AM 43.0 °F - 34.0 °F 71% 29.68 in 10.0 mi Calm Calm - N/A   Overcast
6:22 AM 43.0 °F - 34.0 °F 71% 29.68 in 10.0 mi Calm Calm - 0.00 in Rain Light Rain
6:56 AM 43.0 °F 38.8 °F 35.1 °F 74% 29.64 in 10.0 mi North 6.9 mph - 0.00 in   Overcast
7:56 AM 43.0 °F 39.5 °F 32.0 °F 65% 29.66 in 10.0 mi WNW 5.8 mph - 0.00 in   Mostly Cloudy
8:56 AM 45.0 °F - 30.0 °F 56% 29.66 in 10.0 mi Calm Calm - N/A   Overcast
9:56 AM 48.0 °F - 28.9 °F 48% 29.67 in 10.0 mi Calm Calm - N/A   Overcast
10:56 AM 50.0 °F - 21.9 °F 33% 29.68 in 10.0 mi NW 10.4 mph - N/A   Overcast
11:56 AM 53.1 °F - 21.0 °F 29% 29.67 in 10.0 mi West 16.1 mph - N/A   Mostly Cloudy
12:56 PM 55.0 °F - 19.0 °F 24% 29.65 in 10.0 mi WNW 9.2 mph - N/A   Mostly Cloudy
1:56 PM 55.0 °F - 18.0 °F 23% 29.63 in 10.0 mi WSW 11.5 mph 20.7 mph N/A   Mostly Cloudy
2:56 PM 54.0 °F - 19.0 °F 25% 29.62 in 10.0 mi West 9.2 mph - N/A   Overcast
3:56 PM 54.0 °F - 21.0 °F 28% 29.62 in 10.0 mi West 12.7 mph - N/A   Overcast
4:12 PM 53.1 °F - 24.1 °F 32% 29.67 in 10.0 mi SW 24.2 mph 34.5 mph N/A   Overcast
4:56 PM 51.1 °F - 27.0 °F 39% 29.63 in 10.0 mi SSW 10.4 mph - 0.00 in   Overcast
5:56 PM 51.1 °F - 28.9 °F 43% 29.63 in 10.0 mi WSW 16.1 mph - N/A   Overcast
6:56 PM 50.0 °F - 24.1 °F 36% 29.64 in 10.0 mi West 21.9 mph 26.5 mph N/A   Scattered Clouds
7:56 PM 46.9 °F - 24.1 °F 41% 29.66 in 10.0 mi West 10.4 mph - N/A   Scattered Clouds
8:56 PM 46.0 °F 41.4 °F 24.1 °F 42% 29.68 in 10.0 mi West 9.2 mph - N/A   Scattered Clouds
9:56 PM 43.0 °F 38.8 °F 24.1 °F 47% 29.70 in 10.0 mi WSW 6.9 mph - N/A   Overcast
10:56 PM 44.1 °F 40.1 °F 25.0 °F 47% 29.71 in 10.0 mi West 6.9 mph - N/A   Overcast
11:56 PM 39.0 °F 35.7 °F 23.0 °F 53% 29.73 in 10.0 mi SSE 4.6 mph - N/A   Partly Cloudy